[[{"header":{"parameterUnit":"m.s-1","parameterCategory":1,"la1":30.2991,"la2":30.254,"lo1":-89.0895,"lo2":-89.0444,"dy":0.0017,"dx":0.0017,"nx":28,"ny":28,"refTime":"2025-05-29T03:00:00:Z","depth":0,"parameterNumber":2,"parameterNumberName":"U-component_of_WINDS"},"data":[0,0,0,0,0,0,0,0,0,0,0,0,0,0,0,0,0,0,0,0,0,0,0,0,0,0,0,0,0,0,0,0,0,0,0,0,0,0,0,0,0,0,0,0,0,0,0,0,0,0,0,0,0,0,0,0,0,0,0.5131,0.5131,0,0.5131,0.5131,0.5131,0.5077,0.5076,0.5074,0.5073,0.5078,0.508,0.5081,0,0,0,0,0,0,0,0,0,0,0,0,0,0.5087,0.5088,0.5131,0.5131,0.5131,0.5131,0.5131,0.5131,0.5077,0.5076,0.5074,0.5072,0.5078,0.5079,0.5081,0,0,0,0,0,0,0,0,0,0,0,0,0,0.5099,0.5089,0.5131,0.5104,0.5101,0.5131,0.5131,0.5131,0.5078,0.5076,0.5074,0.5072,0.5077,0.5079,0.5082,0.5138,0,0,0.5088,0.5089,0,0,0,0,0,0,0,0,0.5098,0.5101,0.5108,0.5106,0.5103,0.5102,0.5118,0.5134,0.5078,0.5087,0.5073,0.507,0.5088,0.5089,0.5094,0.5138,0.5139,0.5088,0.509,0.5091,0.5091,0,0,0,0,0,0,0,0.5098,0.51,0.5131,0.5108,0.5105,0.5093,0.5092,0.512,0.51,0.5086,0.5082,0.5083,0.5086,0.5092,0.5094,0.5139,0.5088,0.509,0.5092,0.5093,0.5229,0.5231,0,0,0,0,0,0,0.51,0.51,0.5131,0.5131,0.5095,0.5096,0.5095,0.5105,0.5099,0.5096,0.5084,0.508,0.509,0.5091,0.5094,0.5159,0.5091,0.5093,0.5094,0.5226,0.5229,0.5231,0,0,0,0,0,0,0.5099,0.5103,0.5131,0.5114,0.5117,0.5099,0.511,0.5106,0.5111,0.5098,0.5095,0.5094,0.5088,0.5091,0.5127,0.5159,0.5094,0.5096,0.5224,0.5227,0.523,0.5291,0,0,0,0,0,0,0.5098,0.5103,0.5124,0.5115,0.5118,0.5163,0.5112,0.5107,0.5115,0.5109,0.5106,0.5103,0.5086,0.5124,0.5129,0.5161,0.5098,0.5221,0.5225,0.5229,0.5286,0.5296,0.5304,0,0,0,0,0,0.5097,0.5142,0.5125,0.5129,0.5143,0.5165,0.5167,0.5145,0.5117,0.5138,0.513,0.5104,0.5154,0.5128,0.5134,0.5166,0.5219,0.5224,0.5229,0.5282,0.5294,0.5304,0,0,0,0,0,0,0.5157,0.5141,0.5122,0.5165,0.5167,0.5156,0.5182,0.5159,0.5169,0.5164,0.5138,0.5137,0.5178,0.5176,0.5147,0.522,0.5182,0.5188,0.522,0.5232,0.5241,0.524,0.5099,0,0,0,0,0,0.5175,0.5193,0.5178,0.5218,0.522,0.5201,0.5209,0.5192,0.5193,0.5194,0.5188,0.5192,0.5208,0.522,0.5234,0.5285,0.5284,0.531,0.5319,0.5327,0.5333,0.5359,0.5371,0.5248,0.5248,0.5248,0,0,0.5213,0.5206,0.522,0.523,0.5229,0.5249,0.5202,0.5225,0.524,0.5198,0.5231,0.5227,0.5229,0.5273,0.5292,0.5272,0.5366,0.5334,0.534,0.5342,0.5366,0.5377,0.5387,0.5252,0.5251,0.5251,0,0,0.5293,0.5289,0.5322,0.5321,0.532,0.5306,0.5314,0.5307,0.5302,0.5334,0.5303,0.5321,0.535,0.5352,0.5357,0.5436,0.5412,0.5442,0.549,0.5516,0.5526,0.5534,0.5562,0.5572,0.5448,0.5448,0.5448,0,0.5341,0.5368,0.5342,0.5367,0.5372,0.5333,0.5366,0.5368,0.5372,0.5377,0.5355,0.5389,0.5388,0.5431,0.545,0.5456,0.5464,0.5442,0.5526,0.5534,0.5542,0.5568,0.5579,0.5452,0.5451,0.5451,0.545,0,0.5427,0.5447,0.5473,0.5476,0.5484,0.5514,0.5492,0.5504,0.5486,0.5476,0.5509,0.5506,0.5518,0.5527,0.5511,0.5568,0.5556,0.553,0.5491,0.5557,0.5581,0.5591,0.5457,0.5455,0.5454,0.5453,0,0,0.5546,0.5532,0.5542,0.5542,0.5537,0.5552,0.558,0.559,0.5601,0.5605,0.5627,0.5652,0.5628,0.5634,0.5617,0.5639,0.5701,0.5611,0.561,0.5627,0.5764,0.5783,0.5795,0.5685,0.5687,0.5689,0.5763,0,0.5622,0.5666,0.5643,0.5691,0.5708,0.5671,0.5695,0.5695,0.5685,0.57,0.569,0.5708,0.5675,0.5678,0.5698,0.5689,0.5728,0.5684,0.5707,0.5708,0.5707,0.5807,0.5828,0.5899,0.5773,0.5774,0.5775,0,0.5718,0.5723,0.5772,0.5762,0.5769,0.5791,0.5798,0.5812,0.5811,0.5803,0.5808,0.5786,0.5813,0.5773,0.581,0.578,0.5788,0.5785,0.5788,0.5789,0.5746,0.5811,0.5921,0.5931,0.579,0.5789,0.5788,0,0.5798,0.5819,0.585,0.5852,0.5841,0.5857,0.5854,0.5851,0.5858,0.5865,0.5869,0.588,0.5886,0.5895,0.5876,0.585,0.5916,0.5875,0.591,0.5911,0.5926,0.5925,0.6038,0.5932,0.5931,0.5931,0.5931,0,0.5886,0.5918,0.5886,0.5906,0.5939,0.5912,0.5947,0.594,0.5937,0.5955,0.5925,0.5943,0.5917,0.5932,0.5918,0.595,0.5954,0.5948,0.5944,0.5951,0.5951,0.5956,0.595,0.5934,0.5933,0.5933,0.5932,0,0.5983,0.5963,0.5994,0.5981,0.5978,0.6004,0.5993,0.6011,0.5999,0.6022,0.6026,0.6008,0.6025,0.6006,0.6022,0.6013,0.6056,0.6045,0.6056,0.6053,0.6088,0.6085,0.6207,0.6222,0.6107,0.6108,0.6109,0,0.604,0.6063,0.6051,0.606,0.6058,0.6073,0.608,0.6054,0.6063,0.6063,0.6081,0.6094,0.6104,0.6132,0.6121,0.6133,0.6122,0.6164,0.6123,0.6129,0.6122,0.612,0.6122,0.6172,0.6173,0.6175,0.6175,0,0.6144,0.6132,0.6142,0.6149,0.6157,0.6161,0.6164,0.6173,0.6146,0.6158,0.6173,0.618,0.6195,0.6209,0.6217,0.6215,0.6191,0.6188,0.6197,0.6204,0.6209,0.6206,0.6078,0.6186,0.6184,0.6184,0.6183,0.6183,0.6222,0.624,0.6234,0.6246,0.6244,0.6247,0.6262,0.6251,0.6263,0.6272,0.6257,0.6276,0.6274,0.6282,0.6283,0.6298,0.628,0.6293,0.6296,0.63,0.6305,0.6206,0.63,0.6299,0.6299,0.6299,0.6299,0,0.6323,0.6317,0.6328,0.6331,0.6341,0.6315,0.6316,0.6326,0.6343,0.6342,0.6352,0.6369,0.6382,0.6371,0.6382,0.6397,0.6386,0.64,0.6399,0.6399,0.632,0.6311,0.6409,0.6409,0.6409,0.6409,0.6409,0.6409,0.6377,0.6406,0.6394,0.6422,0.6416,0.6433,0.6435,0.6438,0.6437,0.6457,0.6467,0.6459,0.6454,0.6464,0.6475,0.6472,0.6477,0.6496,0.6489,0.6415,0.6405,0.6394,0.6386,0.6497,0.6497,0.6566,0.6566,0.6567]},{"header":{"parameterUnit":"m.s-1","parameterCategory":1,"la1":30.2991,"la2":30.254,"lo1":-89.0895,"lo2":-89.0444,"dy":0.0017,"dx":0.0017,"nx":28,"ny":28,"refTime":"2025-05-29T03:00:00:Z","depth":0,"parameterNumber":3,"parameterNumberName":"V-component_of_WINDS"},"data":[0,0,0,0,0,0,0,0,0,0,0,0,0,0,0,0,0,0,0,0,0,0,0,0,0,0,0,0,0,0,0,0,0,0,0,0,0,0,0,0,0,0,0,0,0,0,0,0,0,0,0,0,0,0,0,0,0,0,2.9212,2.9215,0,2.9437,2.9439,2.9442,2.9497,2.9495,2.9494,2.9492,2.972,2.9728,2.9735,0,0,0,0,0,0,0,0,0,0,0,0,0,2.8828,2.8835,2.9212,2.9215,2.9218,2.9436,2.9439,2.9442,2.9497,2.9495,2.9493,2.9492,2.9718,2.9727,2.9736,0,0,0,0,0,0,0,0,0,0,0,0,0,2.9018,2.8837,2.9211,2.9271,2.9279,2.9436,2.944,2.9443,2.9497,2.9495,2.9493,2.9491,2.9715,2.9726,2.9737,2.985,0,0,2.9771,2.9776,0,0,0,0,0,0,0,0,2.9007,2.9032,2.926,2.9267,2.9276,2.9437,2.9388,2.9579,2.9498,2.9414,2.9492,2.949,2.9628,2.9646,2.9693,2.986,2.987,2.9772,2.9779,2.9783,2.9787,0,0,0,0,0,0,0,2.8994,2.9022,2.9301,2.9263,2.9273,2.9286,2.9311,2.9424,2.953,2.9421,2.9426,2.9452,2.9632,2.9682,2.9698,2.9873,2.9772,2.9781,2.9788,2.9793,3.0144,3.0147,0,0,0,0,0,0,2.897,2.9011,2.9294,2.9308,2.9133,2.9295,2.9322,2.9387,2.9529,2.9549,2.9454,2.9454,2.9664,2.9685,2.9707,2.9847,2.9783,2.9794,2.98,3.0142,3.0145,3.0148,0,0,0,0,0,0,2.8962,2.8995,2.9285,2.9161,2.9199,2.9304,2.9376,2.9393,2.9443,2.9554,2.9573,2.9485,2.9663,2.9691,2.9814,2.9856,2.9799,2.9809,3.0138,3.0143,3.0146,3.013,0,0,0,0,0,0,2.8951,2.8992,2.9036,2.9161,2.9205,2.9388,2.9379,2.9399,2.9462,2.9465,2.9589,2.9607,2.9663,2.9797,2.9825,2.987,2.9818,3.0135,3.014,3.0145,3.0127,3.0132,3.0137,0,0,0,0,0,2.8937,2.9022,2.9038,2.9072,2.9263,2.9391,2.9416,2.9479,2.9466,2.9511,2.9582,2.9603,2.9847,2.9809,2.9841,2.989,3.0133,3.0139,3.0145,3.0124,3.0131,3.0137,0,0,0,0,0,0,2.8898,2.904,2.9059,2.9188,2.9277,2.94,2.9458,2.9485,2.9579,2.9577,2.9652,2.9679,2.9797,2.9856,2.9811,3.0007,2.999,3.0002,2.9963,2.9971,2.9976,2.9958,2.9827,0,0,0,0,0,2.8905,2.8998,2.9116,2.9218,2.9262,2.9352,2.9411,2.9452,2.9547,2.9585,2.9665,2.9756,2.9853,2.9916,3.0011,3.0136,3.0163,3.0186,3.0191,3.0195,3.0205,3.0274,3.0285,3.0167,3.0167,3.0167,0,0,2.8919,2.9008,2.9062,2.9213,2.9287,2.938,2.9384,2.9483,2.9553,2.96,2.972,2.9782,2.9889,3.0013,3.0072,3.0066,3.0244,3.0203,3.0205,3.0213,3.0281,3.0293,3.0302,3.0171,3.0171,3.017,0,0,2.8993,2.907,2.9163,2.9237,2.935,2.9409,2.9431,2.9551,2.9594,2.9717,2.9754,2.9838,3.0004,3.0078,3.0138,3.024,3.0262,3.0269,3.0296,3.0363,3.0372,3.0381,3.0416,3.0428,3.0278,3.0278,3.0278,0,2.8996,2.9139,2.9207,2.9304,2.9369,2.9417,2.9511,2.958,2.9717,2.9761,2.9753,2.9962,3.0037,3.0179,3.0204,3.0251,3.0278,3.0254,3.0365,3.0375,3.0384,3.0418,3.0431,3.0278,3.0278,3.0278,3.0278,0,2.9137,2.9235,2.9297,2.9429,2.9501,2.9596,2.9678,2.9742,2.9778,2.9838,2.9962,3.0054,3.0169,3.0206,3.0241,3.0352,3.0345,3.0351,3.0335,3.0394,3.0427,3.0441,3.0278,3.0278,3.0278,3.0278,0,0,2.9191,2.936,2.9381,2.9441,2.9569,2.9647,2.9744,2.9857,2.991,3.0004,3.0086,3.0226,3.0232,3.0299,3.0343,3.0402,3.0476,3.0401,3.0404,3.041,3.0603,3.0597,3.0611,3.0493,3.0496,3.0498,3.0594,0,2.9279,2.9455,2.9519,2.9663,2.9754,2.9802,2.9886,2.9973,3.0032,3.0118,3.0184,3.0281,3.0282,3.0323,3.0383,3.0454,3.0515,3.0448,3.0569,3.0572,3.0539,3.0629,3.0623,3.0709,3.0607,3.061,3.0611,0,2.9405,2.95,2.9653,2.977,2.981,2.9885,2.9994,3.0076,3.0175,3.0214,3.029,3.033,3.0433,3.0412,3.0554,3.0507,3.0561,3.0603,3.0608,3.062,3.0594,3.0642,3.0739,3.0751,3.0633,3.0631,3.063,0,2.9427,2.9594,2.9707,2.9757,2.9896,2.9948,3.0008,3.0106,3.0169,3.0264,3.0306,3.0411,3.0469,3.0549,3.0617,3.0596,3.0753,3.0737,3.0787,3.0785,3.0816,3.0813,3.092,3.0853,3.0853,3.0853,3.0852,0,2.9518,2.9609,2.9719,2.9788,2.9892,2.9965,3.0065,3.0128,3.0215,3.0297,3.0345,3.042,3.0506,3.0593,3.0646,3.0755,3.0781,3.0815,3.0828,3.081,3.0805,3.0844,3.0839,3.0856,3.0855,3.0855,3.0854,0,2.9559,2.9637,2.9763,2.9884,2.9917,2.9988,3.0091,3.016,3.0222,3.0325,3.0353,3.045,3.0554,3.063,3.0765,3.0801,3.0918,3.0931,3.0884,3.089,3.0934,3.0928,3.107,3.1092,3.101,3.1011,3.1012,0,2.9611,2.9682,2.9812,2.987,2.993,3.0024,3.009,3.0164,3.023,3.035,3.0404,3.0512,3.0602,3.0767,3.0848,3.0952,3.0967,3.101,3.0983,3.0963,3.0966,3.0961,3.0968,3.1013,3.1013,3.1014,3.1014,0,2.9694,2.9729,2.9822,2.9928,3.0005,3.0092,3.018,3.0225,3.0316,3.0387,3.0495,3.0565,3.0703,3.0809,3.0921,3.0983,3.1013,3.1022,3.1039,3.102,3.0989,3.1005,3.0892,3.1018,3.1018,3.1018,3.1017,3.1017,2.9742,2.9807,2.9908,3.001,3.0084,3.0165,3.0236,3.0307,3.0398,3.0516,3.0555,3.0666,3.0764,3.0917,3.098,3.1068,3.1066,3.1091,3.1097,3.1101,3.1099,3.0977,3.1089,3.1089,3.1089,3.1089,3.1089,0,2.9826,2.9894,2.9987,3.0108,3.0188,3.0212,3.031,3.0375,3.0472,3.0562,3.065,3.0773,3.0877,3.0967,3.1074,3.1127,3.1144,3.1153,3.1149,3.1162,3.1095,3.1069,3.1137,3.1137,3.1137,3.1137,3.1137,3.1137,2.9879,2.9991,3.0038,3.0187,3.0254,3.0364,3.0418,3.0493,3.0564,3.07,3.0786,3.0845,3.0935,3.1049,3.1145,3.1169,3.1205,3.121,3.1237,3.1173,3.1167,3.1161,3.1137,3.1218,3.1218,3.1297,3.1297,3.1298]}]]